[[{"header":{"parameterUnit":"m.s-1","parameterCategory":2,"la1":30.2991,"la2":30.254,"lo1":-89.0895,"lo2":-89.0444,"dx":0.0017,"dy":0.0017,"nx":28,"ny":28,"refTime":"2022-12-12T03:00:00:Z","depth":"0","parameterNumber":2,"parameterNumberName":"U-component_of_CURRENTS"},"data":[0,0,0,0,0,0,0,0,0,0,0,0,0,0,0,0,0,0,0,0,0,0,0,0,0,0,0,0,0,0,0,0,0,0,0,0,0,0,0,0,0,0,0,0,0,0,0,0,0,0,0,0,0,0,0,0,0,0,0.3249,0.3251,0,0.3349,0.335,0.335,0.3377,0.3377,0.3377,0.3377,0.3401,0.3401,0.3402,0,0,0,0,0,0,0,0,0,0,0,0,0,0.308,0.3082,0.3249,0.3251,0.3253,0.3349,0.335,0.335,0.3377,0.3377,0.3377,0.3377,0.3401,0.3401,0.3402,0,0,0,0,0,0,0,0,0,0,0,0,0,0.3158,0.3083,0.3249,0.3282,0.3287,0.3349,0.335,0.3351,0.3377,0.3377,0.3377,0.3377,0.34,0.3401,0.3402,0.3409,0,0,0.3405,0.3406,0,0,0,0,0,0,0,0,0.3153,0.3163,0.3275,0.328,0.3285,0.3356,0.3299,0.3369,0.3377,0.3336,0.3377,0.3377,0.3383,0.3385,0.3396,0.341,0.3411,0.3405,0.3406,0.3406,0.3407,0,0,0,0,0,0,0,0.3148,0.3159,0.3282,0.3278,0.3284,0.3292,0.3302,0.3312,0.3352,0.334,0.3344,0.3364,0.3384,0.3395,0.3397,0.3412,0.3405,0.3406,0.3407,0.3407,0.3503,0.3505,0,0,0,0,0,0,0.3149,0.3154,0.3279,0.3286,0.3225,0.3295,0.3307,0.3328,0.3354,0.336,0.3364,0.3365,0.3394,0.3396,0.3398,0.3478,0.3406,0.3407,0.3408,0.3501,0.3504,0.3506,0,0,0,0,0,0,0.3144,0.3159,0.3275,0.3227,0.3243,0.3299,0.3323,0.333,0.3347,0.3375,0.3378,0.3374,0.3394,0.3397,0.3437,0.3476,0.3408,0.3409,0.3499,0.3502,0.3505,0.3592,0,0,0,0,0,0,0.3139,0.3156,0.3167,0.3227,0.3246,0.332,0.3324,0.3333,0.3363,0.3365,0.3384,0.3386,0.3394,0.3436,0.3438,0.3476,0.341,0.3497,0.35,0.3504,0.3586,0.3597,0.3606,0,0,0,0,0,0.3133,0.3152,0.3167,0.3183,0.3261,0.3322,0.3331,0.3366,0.3363,0.3377,0.3405,0.3386,0.346,0.3439,0.3441,0.348,0.3495,0.3499,0.3504,0.3582,0.3595,0.3606,0,0,0,0,0,0,0.3082,0.3159,0.3177,0.3217,0.3269,0.3329,0.3348,0.3367,0.3399,0.3399,0.3411,0.3417,0.3459,0.3459,0.3435,0.3519,0.3474,0.3479,0.3532,0.3545,0.3555,0.3541,0.341,0,0,0,0,0,0.3078,0.3111,0.3184,0.3215,0.3242,0.3291,0.3318,0.3345,0.3386,0.3399,0.3417,0.3443,0.3478,0.3503,0.3517,0.3568,0.3583,0.3595,0.3605,0.3613,0.3605,0.3677,0.3694,0.352,0.352,0.352,0,0,0.3064,0.3114,0.313,0.3206,0.3245,0.3298,0.3306,0.3352,0.3398,0.3396,0.3448,0.3464,0.3494,0.3554,0.3574,0.3564,0.3677,0.3619,0.3626,0.3612,0.3684,0.3701,0.3716,0.3523,0.3523,0.3522,0,0,0.3067,0.3101,0.3136,0.3184,0.3257,0.3296,0.3311,0.3374,0.3404,0.3465,0.3477,0.3525,0.357,0.3615,0.3641,0.3714,0.3713,0.3715,0.3776,0.3848,0.3863,0.3876,0.3943,0.3961,0.374,0.374,0.374,0,0.3048,0.3107,0.3153,0.3207,0.325,0.3297,0.3346,0.3391,0.3459,0.3492,0.349,0.3584,0.3605,0.3698,0.3733,0.3737,0.3772,0.373,0.3862,0.3875,0.3887,0.3952,0.3971,0.3745,0.3744,0.3744,0.3743,0,0.309,0.3134,0.3159,0.3245,0.3293,0.3341,0.3418,0.3464,0.3502,0.3548,0.3628,0.3675,0.3732,0.376,0.3774,0.3874,0.3872,0.3853,0.3831,0.391,0.3974,0.3992,0.3751,0.375,0.3748,0.3747,0,0,0.3047,0.3165,0.3171,0.3214,0.3317,0.3359,0.3445,0.3535,0.3584,0.3656,0.3726,0.3814,0.3824,0.3854,0.3882,0.396,0.409,0.3951,0.3953,0.4017,0.4258,0.4344,0.4372,0.4101,0.4104,0.4106,0.4279,0,0.3064,0.3153,0.3216,0.3294,0.3345,0.3423,0.3491,0.3575,0.3647,0.3721,0.3798,0.3859,0.3868,0.3901,0.3984,0.4045,0.4137,0.4045,0.4171,0.4174,0.4241,0.4396,0.4279,0.443,0.4296,0.4299,0.4301,0,0.3079,0.3142,0.3219,0.3321,0.3348,0.3399,0.3513,0.3589,0.3709,0.3759,0.385,0.3894,0.4016,0.4,0.4181,0.4123,0.4198,0.4253,0.4261,0.4316,0.4295,0.4325,0.4468,0.4345,0.4329,0.4327,0.4325,0,0.302,0.3136,0.3192,0.323,0.3356,0.3401,0.3471,0.3591,0.3662,0.3783,0.3841,0.3965,0.4042,0.4151,0.4288,0.4238,0.4486,0.4426,0.458,0.4585,0.4496,0.449,0.4529,0.4563,0.4563,0.4562,0.4562,0,0.301,0.3054,0.3163,0.3195,0.3258,0.3359,0.3438,0.3524,0.3649,0.3735,0.3845,0.3949,0.4086,0.4245,0.4331,0.4547,0.4534,0.4627,0.4656,0.4528,0.4523,0.4417,0.4349,0.4569,0.4567,0.4566,0.4565,0,0.2944,0.3016,0.3082,0.3198,0.3231,0.3277,0.3414,0.3478,0.3597,0.372,0.3763,0.3968,0.4199,0.4362,0.4567,0.463,0.4691,0.4869,0.472,0.4731,0.474,0.4682,0.4589,0.4444,0.5054,0.5058,0.5061,0,0.293,0.2953,0.3056,0.3094,0.3147,0.3231,0.3291,0.3428,0.3511,0.3743,0.3804,0.4069,0.4268,0.4634,0.4812,0.5033,0.4838,0.5022,0.4911,0.4775,0.4729,0.4486,0.4348,0.4824,0.4824,0.4825,0.4826,0,0.2908,0.2929,0.2988,0.3059,0.3119,0.318,0.3284,0.3339,0.3516,0.3652,0.3883,0.4067,0.4452,0.4683,0.499,0.508,0.4787,0.5046,0.4925,0.4599,0.4311,0.4172,0.4668,0.4831,0.4831,0.483,0.483,0.483,0.2898,0.2917,0.2992,0.3047,0.3106,0.3152,0.3186,0.3316,0.3462,0.3668,0.3879,0.4148,0.4482,0.4937,0.4978,0.5005,0.4913,0.4903,0.486,0.4638,0.444,0.4983,0.5172,0.5173,0.5174,0.5175,0.5176,0,0.2922,0.2946,0.2989,0.3054,0.3082,0.3122,0.3203,0.3234,0.3386,0.3629,0.3853,0.4264,0.4521,0.4724,0.4936,0.4828,0.4513,0.4696,0.4268,0.4152,0.4675,0.4609,0.4659,0.4659,0.4659,0.4659,0.4659,0.4659,0.2951,0.299,0.2995,0.3034,0.3058,0.3071,0.3098,0.3159,0.3307,0.3576,0.3823,0.4061,0.4406,0.4729,0.4698,0.4589,0.4174,0.4072,0.3982,0.4321,0.4332,0.4342,0.4262,0.4238,0.4238,0.3255,0.3248,0.3243]},{"header":{"parameterUnit":"m.s-1","parameterCategory":2,"la1":30.2991,"la2":30.254,"lo1":-89.0895,"lo2":-89.0444,"dx":0.0017,"dy":0.0017,"nx":28,"ny":28,"refTime":"2022-12-12T03:00:00:Z","depth":"0","parameterNumber":3,"parameterNumberName":"V-component_of_CURRENTS"},"data":[0,0,0,0,0,0,0,0,0,0,0,0,0,0,0,0,0,0,0,0,0,0,0,0,0,0,0,0,0,0,0,0,0,0,0,0,0,0,0,0,0,0,0,0,0,0,0,0,0,0,0,0,0,0,0,0,0,0,-0.1254,-0.1255,0,-0.1263,-0.1263,-0.1263,-0.1268,-0.1269,-0.1269,-0.127,-0.1359,-0.136,-0.1362,0,0,0,0,0,0,0,0,0,0,0,0,0,-0.1246,-0.1246,-0.1254,-0.1255,-0.1255,-0.1264,-0.1263,-0.1263,-0.1268,-0.1269,-0.127,-0.127,-0.1358,-0.136,-0.1362,0,0,0,0,0,0,0,0,0,0,0,0,0,-0.1247,-0.1246,-0.1254,-0.1263,-0.1264,-0.1264,-0.1263,-0.1263,-0.1268,-0.1269,-0.127,-0.127,-0.1357,-0.136,-0.1363,-0.1366,0,0,-0.1372,-0.1373,0,0,0,0,0,0,0,0,-0.1247,-0.1247,-0.1261,-0.1262,-0.1264,-0.127,-0.1293,-0.1303,-0.1268,-0.1261,-0.127,-0.1271,-0.1339,-0.1343,-0.1335,-0.137,-0.1374,-0.1372,-0.1373,-0.1375,-0.1376,0,0,0,0,0,0,0,-0.1247,-0.1247,-0.1253,-0.1262,-0.1263,-0.1268,-0.1269,-0.1294,-0.1294,-0.1262,-0.1264,-0.1272,-0.134,-0.1332,-0.1338,-0.1375,-0.1372,-0.1374,-0.1376,-0.1377,-0.1419,-0.1418,0,0,0,0,0,0,-0.1255,-0.1246,-0.1253,-0.1254,-0.1263,-0.1268,-0.1268,-0.1263,-0.1292,-0.1298,-0.1272,-0.1273,-0.1327,-0.1334,-0.1341,-0.1327,-0.1375,-0.1377,-0.1379,-0.1419,-0.1418,-0.1418,0,0,0,0,0,0,-0.1254,-0.1255,-0.1252,-0.1255,-0.1256,-0.1268,-0.1262,-0.1263,-0.1261,-0.1299,-0.1306,-0.127,-0.1328,-0.1337,-0.1353,-0.1331,-0.1379,-0.1381,-0.142,-0.1419,-0.1418,-0.1311,0,0,0,0,0,0,-0.1254,-0.1254,-0.1244,-0.1255,-0.1256,-0.1229,-0.1262,-0.1263,-0.1267,-0.1269,-0.13,-0.1308,-0.1329,-0.1348,-0.1356,-0.1336,-0.1384,-0.1421,-0.142,-0.1418,-0.1316,-0.1307,-0.1299,0,0,0,0,0,-0.1253,-0.1218,-0.1243,-0.1244,-0.1245,-0.1228,-0.1227,-0.1237,-0.1267,-0.1242,-0.1275,-0.1307,-0.1347,-0.135,-0.1359,-0.1339,-0.1421,-0.142,-0.1419,-0.1319,-0.1309,-0.13,0,0,0,0,0,0,-0.1174,-0.1216,-0.1244,-0.1215,-0.1222,-0.1231,-0.1204,-0.1237,-0.1242,-0.1243,-0.1297,-0.1306,-0.1311,-0.1345,-0.1348,-0.135,-0.1391,-0.1391,-0.1312,-0.1303,-0.1295,-0.122,-0.1386,0,0,0,0,0,-0.1166,-0.1162,-0.1197,-0.1166,-0.117,-0.1196,-0.1194,-0.1203,-0.1218,-0.122,-0.1254,-0.1289,-0.1311,-0.1323,-0.1342,-0.1345,-0.1354,-0.1342,-0.1333,-0.1326,-0.1272,-0.1295,-0.1283,-0.1413,-0.1413,-0.1413,0,0,-0.1119,-0.1146,-0.1138,-0.1153,-0.1154,-0.1119,-0.1192,-0.1168,-0.1139,-0.1231,-0.1201,-0.126,-0.1306,-0.1299,-0.1305,-0.1325,-0.1294,-0.1324,-0.1317,-0.1267,-0.1292,-0.1279,-0.1268,-0.1412,-0.1413,-0.1413,0,0,-0.1012,-0.1054,-0.1013,-0.1018,-0.1033,-0.1052,-0.1051,-0.1071,-0.1079,-0.1075,-0.1135,-0.1173,-0.121,-0.1228,-0.1248,-0.121,-0.1251,-0.1239,-0.1133,-0.1157,-0.1146,-0.1136,-0.1123,-0.1113,-0.1234,-0.1234,-0.1234,0,-0.0947,-0.0925,-0.0989,-0.0947,-0.0944,-0.1019,-0.0963,-0.0967,-0.0991,-0.0997,-0.1045,-0.1108,-0.1161,-0.1154,-0.1137,-0.1186,-0.1197,-0.1166,-0.1143,-0.1134,-0.1125,-0.1115,-0.1105,-0.1229,-0.1229,-0.123,-0.123,0,-0.0817,-0.0801,-0.0768,-0.0758,-0.0754,-0.0719,-0.0755,-0.0754,-0.0806,-0.0829,-0.0853,-0.0935,-0.0971,-0.1012,-0.1056,-0.1032,-0.1057,-0.1131,-0.116,-0.1105,-0.1099,-0.109,-0.1221,-0.1223,-0.1224,-0.1226,0,0,-0.0654,-0.0679,-0.0661,-0.0665,-0.0667,-0.0658,-0.0605,-0.0602,-0.0589,-0.0635,-0.0629,-0.0683,-0.0759,-0.0784,-0.0878,-0.0897,-0.0864,-0.0973,-0.0977,-0.0941,-0.0883,-0.0838,-0.0826,-0.0943,-0.0941,-0.094,-0.0899,0,-0.053,-0.0464,-0.0492,-0.0418,-0.0403,-0.0455,-0.041,-0.0416,-0.0457,-0.0468,-0.0556,-0.0586,-0.0665,-0.0714,-0.0734,-0.0848,-0.0836,-0.0864,-0.0955,-0.0955,-0.0908,-0.0812,-0.075,-0.0703,-0.0891,-0.089,-0.0889,0,-0.0393,-0.0388,-0.0315,-0.033,-0.0319,-0.0279,-0.0278,-0.0248,-0.0265,-0.0296,-0.0329,-0.0414,-0.0443,-0.0549,-0.062,-0.0639,-0.0713,-0.0794,-0.0798,-0.0773,-0.0893,-0.0792,-0.0681,-0.0953,-0.0876,-0.0877,-0.0878,0,-0.0319,-0.0267,-0.0235,-0.0229,-0.023,-0.0207,-0.0201,-0.0199,-0.0176,-0.0199,-0.0193,-0.0256,-0.0307,-0.0393,-0.0527,-0.0581,-0.0609,-0.0726,-0.0733,-0.0732,-0.0697,-0.0694,-0.0834,-0.073,-0.073,-0.0731,-0.0731,0,-0.0222,-0.0194,-0.0209,-0.0196,-0.015,-0.0161,-0.011,-0.0108,-0.0086,-0.0017,-0.0111,-0.0071,-0.0272,-0.0323,-0.0451,-0.0526,-0.054,-0.0651,-0.0701,-0.0659,-0.0653,-0.0906,-0.1068,-0.0729,-0.0729,-0.073,-0.073,0,-0.0174,-0.0174,-0.0149,-0.0138,-0.0128,-0.0105,-0.0059,-0.0008,0.0006,0.0092,0.0098,0.0063,0.0029,-0.0139,-0.0291,-0.0418,-0.0637,-0.0544,-0.0453,-0.0491,-0.0762,-0.0919,-0.1028,-0.1154,-0.054,-0.0538,-0.0537,0,-0.0169,-0.0148,-0.0119,-0.0081,-0.0079,-0.0044,0.001,0.0029,0.0107,0.0213,0.0283,0.0265,0.0352,0.0162,-0.0088,-0.0256,-0.054,-0.0368,-0.0454,-0.0704,-0.092,-0.1045,-0.1155,-0.0373,-0.0371,-0.0369,-0.0367,0,-0.0148,-0.0129,-0.0096,-0.0005,0.0048,0.0103,0.0185,0.0264,0.035,0.0482,0.0692,0.078,0.0609,0.0487,0.0182,0.0014,-0.0548,-0.0328,-0.0628,-0.079,-0.0894,-0.1063,-0.0471,-0.0348,-0.035,-0.0351,-0.0352,-0.0353,-0.0117,-0.0072,0.0022,0.0105,0.0183,0.0318,0.0413,0.0559,0.0764,0.1058,0.107,0.1353,0.1015,0.0646,0.0278,-0.0348,-0.0392,-0.0531,-0.0693,-0.0791,-0.0927,-0.0253,-0.0176,-0.0177,-0.0178,-0.0178,-0.0179,0,-0.002,0.0064,0.0145,0.0297,0.043,0.0425,0.0605,0.076,0.1086,0.1409,0.1675,0.1848,0.1349,0.0757,-0.0084,-0.0605,-0.0868,-0.0923,-0.1133,-0.1227,-0.0648,-0.066,-0.0636,-0.0636,-0.0636,-0.0635,-0.0635,-0.0635,0.0067,0.0201,0.0256,0.0516,0.062,0.0815,0.0931,0.1187,0.1462,0.201,0.2365,0.2581,0.2211,0.0452,-0.0804,-0.1119,-0.1567,-0.1592,-0.1865,-0.1538,-0.1517,-0.1497,-0.1549,-0.1712,-0.1713,-0.2374,-0.2381,-0.2386]}],[{"header":{"parameterUnit":"m.s-1","parameterCategory":2,"la1":30.2991,"la2":30.254,"lo1":-89.0895,"lo2":-89.0444,"dx":0.0017,"dy":0.0017,"nx":28,"ny":28,"refTime":"2022-12-12T03:00:00:Z","depth":"2","parameterNumber":2,"parameterNumberName":"U-component_of_CURRENTS"},"data":[0,0,0,0,0,0,0,0,0,0,0,0,0,0,0,0,0,0,0,0,0,0,0,0,0,0,0,0,0,0,0,0,0,0,0,0,0,0,0,0,0,0,0,0,0,0,0,0,0,0,0,0,0,0,0,0,0,0,0.2568,0.2569,0,0.2603,0.2602,0.2602,0.2597,0.2598,0.2598,0.2598,0.2665,0.2666,0.2668,0,0,0,0,0,0,0,0,0,0,0,0,0,0.2463,0.2465,0.2568,0.2569,0.257,0.2603,0.2602,0.2602,0.2597,0.2598,0.2598,0.2598,0.2665,0.2666,0.2668,0,0,0,0,0,0,0,0,0,0,0,0,0,0.2495,0.2465,0.2567,0.2579,0.2581,0.2603,0.2602,0.2602,0.2597,0.2598,0.2598,0.2599,0.2664,0.2666,0.2668,0.2672,0,0,0.2675,0.2676,0,0,0,0,0,0,0,0,0.2494,0.2498,0.2576,0.2579,0.2581,0.2605,0.2591,0.263,0.2597,0.2581,0.2598,0.2599,0.2654,0.2657,0.2648,0.2675,0.2678,0.2675,0.2677,0.2678,0.2678,0,0,0,0,0,0,0,0.2491,0.2496,0.2572,0.2578,0.2581,0.2572,0.2576,0.2597,0.2607,0.2582,0.2584,0.2604,0.2654,0.2646,0.265,0.2679,0.2675,0.2677,0.2679,0.2679,0.2782,0.2783,0,0,0,0,0,0,0.2508,0.2495,0.2571,0.2574,0.2549,0.2574,0.2579,0.2589,0.2606,0.2612,0.2603,0.2604,0.2642,0.2647,0.2652,0.2754,0.2678,0.268,0.2681,0.2781,0.2782,0.2784,0,0,0,0,0,0,0.2506,0.2514,0.257,0.2543,0.2551,0.2577,0.2587,0.2589,0.2612,0.2624,0.2628,0.263,0.2642,0.2649,0.2696,0.2754,0.2681,0.2683,0.2779,0.2781,0.2783,0.2898,0,0,0,0,0,0,0.2502,0.2513,0.2522,0.2544,0.2553,0.2606,0.2588,0.259,0.2626,0.2627,0.2648,0.2652,0.2643,0.2692,0.2698,0.2755,0.2684,0.2777,0.278,0.2782,0.2892,0.2903,0.2913,0,0,0,0,0,0.2498,0.2506,0.2522,0.2532,0.2566,0.2608,0.2611,0.2624,0.2628,0.2644,0.2658,0.2653,0.2713,0.2695,0.2701,0.2761,0.2776,0.2779,0.2782,0.2887,0.2901,0.2913,0,0,0,0,0,0,0.2456,0.2509,0.2525,0.2547,0.2591,0.2611,0.2624,0.2645,0.2664,0.2668,0.2673,0.2679,0.2759,0.2728,0.2709,0.2794,0.2743,0.2748,0.2821,0.2834,0.2844,0.2845,0.2686,0,0,0,0,0,0.2457,0.2491,0.2534,0.2562,0.2577,0.2609,0.2628,0.2647,0.2673,0.2682,0.27,0.2718,0.2769,0.2776,0.2811,0.2841,0.2839,0.2879,0.289,0.2899,0.2901,0.2934,0.2948,0.2794,0.2794,0.2794,0,0,0.2456,0.249,0.251,0.2559,0.2582,0.2617,0.2619,0.2661,0.27,0.2688,0.2736,0.2778,0.2794,0.285,0.2878,0.283,0.2949,0.2903,0.2911,0.2908,0.2939,0.2954,0.2967,0.2796,0.2796,0.2795,0,0,0.2463,0.2492,0.2516,0.256,0.2618,0.2637,0.2663,0.2703,0.2726,0.2782,0.2805,0.2865,0.2906,0.2933,0.2953,0.3032,0.3031,0.3052,0.3079,0.3112,0.3125,0.3136,0.3189,0.3204,0.3024,0.3024,0.3024,0,0.2452,0.2492,0.2532,0.2571,0.2606,0.2654,0.2685,0.2724,0.2781,0.281,0.281,0.2921,0.2944,0.3028,0.3063,0.3061,0.3083,0.3036,0.3128,0.3138,0.3148,0.3199,0.3214,0.303,0.3029,0.3028,0.3028,0,0.2481,0.2519,0.2539,0.2604,0.2646,0.2687,0.275,0.2797,0.2835,0.2876,0.298,0.3016,0.307,0.3105,0.3114,0.3208,0.3207,0.3168,0.31,0.3171,0.322,0.3234,0.3038,0.3036,0.3034,0.3033,0,0,0.2428,0.2532,0.2541,0.2581,0.2666,0.2704,0.2776,0.2847,0.2903,0.2972,0.3038,0.3146,0.3176,0.3199,0.323,0.3256,0.3371,0.3244,0.3243,0.3306,0.3473,0.3419,0.3428,0.3354,0.3356,0.3358,0.3493,0,0.243,0.2494,0.2551,0.2627,0.2659,0.2738,0.2799,0.2884,0.2951,0.3029,0.3101,0.3191,0.3209,0.3257,0.3295,0.3367,0.3407,0.3339,0.3386,0.3388,0.3337,0.3441,0.3206,0.3301,0.3506,0.3508,0.351,0,0.2428,0.2474,0.2529,0.2636,0.2655,0.2715,0.282,0.2888,0.3012,0.307,0.3166,0.3234,0.3345,0.3322,0.3461,0.3423,0.3463,0.3494,0.3499,0.3411,0.3357,0.3255,0.3318,0.3532,0.3531,0.3529,0.3528,0,0.2366,0.2461,0.2501,0.2544,0.2663,0.2711,0.2776,0.2896,0.2967,0.3109,0.3175,0.3301,0.3379,0.3449,0.3537,0.3516,0.366,0.3621,0.361,0.3607,0.3394,0.3368,0.37,0.37,0.37,0.3699,0.3699,0,0.2343,0.2385,0.2482,0.2522,0.258,0.2676,0.2769,0.2852,0.2982,0.3086,0.3194,0.3299,0.3416,0.3514,0.3566,0.3645,0.3684,0.3649,0.3643,0.343,0.3407,0.3575,0.3559,0.3704,0.3703,0.3702,0.3701,0,0.2283,0.2346,0.241,0.2525,0.256,0.2607,0.2763,0.2835,0.2959,0.3096,0.3152,0.333,0.3485,0.3571,0.3701,0.3685,0.3754,0.3756,0.3516,0.3479,0.368,0.3668,0.3786,0.3786,0.3785,0.3785,0.3784,0,0.2265,0.2288,0.2398,0.2444,0.2504,0.2597,0.2664,0.2804,0.2892,0.3126,0.3181,0.3377,0.3496,0.3651,0.3694,0.3768,0.3791,0.3549,0.3455,0.3709,0.3692,0.368,0.3669,0.3239,0.3234,0.323,0.3227,0,0.2254,0.2291,0.2354,0.2417,0.2491,0.2566,0.2678,0.2726,0.2911,0.3012,0.3183,0.3294,0.3495,0.348,0.3558,0.356,0.3519,0.3473,0.38,0.3246,0.3201,0.3181,0.3187,0.3191,0.3195,0.3198,0.32,0.3201,0.2264,0.2286,0.2371,0.2396,0.2481,0.2526,0.253,0.2651,0.2739,0.2846,0.3054,0.3122,0.3244,0.3265,0.3216,0.3193,0.3426,0.3269,0.3278,0.3292,0.3197,0.3152,0.3118,0.3121,0.3124,0.3126,0.3128,0,0.2241,0.2274,0.2352,0.2386,0.2413,0.2484,0.253,0.2484,0.2505,0.2691,0.2787,0.2663,0.271,0.2822,0.2766,0.2797,0.2728,0.2669,0.2557,0.2599,0.2634,0.2499,0.2239,0.2235,0.2231,0.2228,0,0,0.2246,0.2258,0.2263,0.2284,0.2331,0.227,0.2254,0.2191,0.2249,0.2249,0.2301,0.2556,0.2754,0.2439,0.2446,0.2331,0.2423,0.2245,0.2977,0.2889,0.2918,0.3025,0.2871,0,0,0,0,0]},{"header":{"parameterUnit":"m.s-1","parameterCategory":2,"la1":30.2991,"la2":30.254,"lo1":-89.0895,"lo2":-89.0444,"dx":0.0017,"dy":0.0017,"nx":28,"ny":28,"refTime":"2022-12-12T03:00:00:Z","depth":"2","parameterNumber":3,"parameterNumberName":"V-component_of_CURRENTS"},"data":[0,0,0,0,0,0,0,0,0,0,0,0,0,0,0,0,0,0,0,0,0,0,0,0,0,0,0,0,0,0,0,0,0,0,0,0,0,0,0,0,0,0,0,0,0,0,0,0,0,0,0,0,0,0,0,0,0,0,0.0117,0.0115,0,0.0043,0.0042,0.0042,0.0012,0.0012,0.0011,0.0011,-0.016,-0.0164,-0.0169,0,0,0,0,0,0,0,0,0,0,0,0,0,0.0216,0.0215,0.0117,0.0115,0.0114,0.0043,0.0042,0.0042,0.0012,0.0012,0.0011,0.0011,-0.0159,-0.0164,-0.0169,0,0,0,0,0,0,0,0,0,0,0,0,0,0.0167,0.0215,0.0117,0.0086,0.0082,0.0043,0.0042,0.0042,0.0012,0.0012,0.0011,0.0011,-0.0157,-0.0163,-0.017,-0.0196,0,0,-0.0189,-0.0191,0,0,0,0,0,0,0,0,0.017,0.0164,0.0092,0.0088,0.0083,0.003,0.0014,-0.0045,0.0013,0.0046,0.0011,0.001,-0.0109,-0.012,-0.0122,-0.0204,-0.0212,-0.0189,-0.0193,-0.0196,-0.0198,0,0,0,0,0,0,0,0.0173,0.0167,0.0094,0.009,0.0085,0.0069,0.0062,0.0004,-0.0024,0.0043,0.0039,0.002,-0.0112,-0.0115,-0.0126,-0.0214,-0.0189,-0.0195,-0.0199,-0.0201,-0.0322,-0.0321,0,0,0,0,0,0,0.0171,0.017,0.0096,0.0091,0.0118,0.0067,0.006,0.0053,-0.0022,-0.0035,0.0021,0.0019,-0.0104,-0.0119,-0.0133,-0.0162,-0.0196,-0.0202,-0.0205,-0.0322,-0.0321,-0.0321,0,0,0,0,0,0,0.0173,0.0165,0.0099,0.0123,0.0113,0.0066,0.0059,0.0052,0.0034,-0.0038,-0.0052,0.0008,-0.0105,-0.0124,-0.0177,-0.0169,-0.0204,-0.021,-0.0323,-0.0322,-0.0321,-0.0225,0,0,0,0,0,0,0.0177,0.0167,0.0166,0.0123,0.0111,0.0077,0.0058,0.0051,0.0021,0.0018,-0.0055,-0.007,-0.0107,-0.0167,-0.0184,-0.0179,-0.0215,-0.0324,-0.0322,-0.0321,-0.0229,-0.0221,-0.0215,0,0,0,0,0,0.0181,0.0191,0.0167,0.0157,0.0109,0.0077,0.007,0.0039,0.0021,0.002,-0.0023,-0.0068,-0.0172,-0.0172,-0.0191,-0.0188,-0.0324,-0.0323,-0.0321,-0.0232,-0.0223,-0.0215,0,0,0,0,0,0,0.0227,0.0187,0.0159,0.0154,0.0112,0.0069,0.0062,0.0034,0.0001,-0.0008,-0.0069,-0.0086,-0.0135,-0.0173,-0.0172,-0.0218,-0.0253,-0.0256,-0.0179,-0.0171,-0.0164,-0.0163,-0.022,0,0,0,0,0,0.0234,0.0228,0.018,0.0165,0.0152,0.0103,0.0084,0.0058,0.0017,0.0003,-0.0043,-0.0093,-0.0141,-0.0165,-0.0218,-0.0244,-0.0288,-0.0252,-0.0245,-0.0238,-0.025,-0.0294,-0.0292,-0.0317,-0.0317,-0.0317,0,0,0.0238,0.0216,0.0207,0.0173,0.0141,0.0132,0.0092,0.0062,0.0054,-0.0015,-0.0033,-0.0085,-0.0148,-0.0173,-0.0196,-0.0203,-0.025,-0.0237,-0.023,-0.0246,-0.0293,-0.0291,-0.0288,-0.0316,-0.0316,-0.0316,0,0,0.0252,0.0231,0.0235,0.0212,0.0165,0.0143,0.0132,0.009,0.0074,0.0038,-0.0005,-0.0044,-0.0118,-0.014,-0.0168,-0.0156,-0.0222,-0.0175,-0.0126,-0.0168,-0.0166,-0.0166,-0.0198,-0.0201,-0.0155,-0.0155,-0.0155,0,0.026,0.0262,0.0227,0.0227,0.0216,0.0151,0.0157,0.013,0.0076,0.007,0.0039,-0.0048,-0.01,-0.0123,-0.0113,-0.014,-0.0177,-0.015,-0.0158,-0.0158,-0.0159,-0.0193,-0.0198,-0.015,-0.0151,-0.0151,-0.0152,0,0.028,0.028,0.0281,0.0266,0.0252,0.0242,0.0202,0.0189,0.0155,0.0125,0.0082,0.0019,-0.0024,-0.0043,-0.0081,-0.0101,-0.0129,-0.0153,-0.0177,-0.0151,-0.0188,-0.0194,-0.0143,-0.0145,-0.0147,-0.0148,0,0,0.0307,0.0302,0.0303,0.0314,0.0279,0.0275,0.0264,0.0249,0.0258,0.0187,0.0194,0.0108,0.0071,0.0036,-0.0008,-0.0046,-0.0074,-0.0096,-0.0101,-0.0123,-0.0167,-0.0182,-0.0191,-0.0102,-0.0103,-0.0104,-0.0183,0,0.0336,0.0372,0.0354,0.0377,0.0396,0.0354,0.0359,0.0331,0.0302,0.0295,0.0212,0.0187,0.0103,0.0095,0.0039,-0.0048,-0.0092,-0.0051,-0.0196,-0.02,-0.0212,-0.0199,-0.0165,-0.0233,-0.0189,-0.0191,-0.0191,0,0.037,0.0395,0.0441,0.0462,0.0467,0.0474,0.0492,0.0482,0.0445,0.0424,0.0371,0.0302,0.0235,0.0163,0.0009,0.0037,-0.0065,-0.0142,-0.0147,-0.0206,-0.0228,-0.0258,-0.0247,-0.0203,-0.0202,-0.0201,-0.0201,0,0.0431,0.0459,0.0511,0.0514,0.0523,0.0544,0.0548,0.0529,0.0546,0.0513,0.052,0.0408,0.038,0.0216,0.0046,0.0026,-0.0124,-0.0163,-0.0277,-0.0278,-0.0303,-0.0305,-0.0283,-0.0282,-0.0282,-0.0282,-0.0282,0,0.0483,0.0519,0.0552,0.0576,0.0648,0.0621,0.0676,0.0673,0.0671,0.0717,0.0595,0.0611,0.0388,0.0274,0.0086,-0.0107,-0.0094,-0.0278,-0.0304,-0.0266,-0.0264,-0.0287,-0.0287,-0.0285,-0.0284,-0.0284,-0.0283,0,0.0537,0.0551,0.0614,0.0656,0.0678,0.0731,0.077,0.0812,0.0797,0.0857,0.0853,0.0767,0.0623,0.0387,0.0157,-0.0021,-0.0221,-0.0294,-0.023,-0.0248,-0.0362,-0.0356,-0.044,-0.0441,-0.0442,-0.0443,-0.0444,0,0.0582,0.0607,0.0689,0.0738,0.0763,0.0826,0.0877,0.0885,0.0943,0.0966,0.1019,0.0904,0.0848,0.0491,0.0157,-0.0172,-0.021,-0.0343,-0.0389,-0.0364,-0.0381,-0.0372,-0.0365,-0.0376,-0.0376,-0.0376,-0.0377,0,0.0641,0.0657,0.072,0.0826,0.0901,0.0979,0.1059,0.1133,0.1164,0.1217,0.1287,0.1241,0.0906,0.0583,0.0131,-0.0083,-0.0297,-0.0357,-0.0344,-0.0338,-0.0309,-0.0324,-0.0317,-0.0378,-0.0377,-0.0377,-0.0377,-0.0377,0.0707,0.075,0.0818,0.0932,0.1013,0.1132,0.1231,0.1318,0.1434,0.153,0.1485,0.142,0.1047,0.0462,0.0081,-0.0312,-0.0308,-0.0442,-0.044,-0.0438,-0.0412,-0.0387,-0.0465,-0.0465,-0.0466,-0.0466,-0.0466,0,0.0776,0.0814,0.0908,0.1045,0.1155,0.118,0.1353,0.1458,0.1628,0.167,0.17,0.1352,0.0961,0.0535,-0.0065,-0.0423,-0.0441,-0.0509,-0.0465,-0.0461,-0.0458,-0.0433,-0.0492,-0.0493,-0.0494,-0.0495,0,0,0.0807,0.0905,0.0947,0.1146,0.1239,0.141,0.1529,0.1674,0.1753,0.1804,0.1746,0.1614,0.1088,0.0656,0.0169,-0.0167,-0.0221,-0.0216,-0.0157,-0.0042,-0.0035,-0.0382,-0.0335,0,0,0,0,0]}],[{"header":{"parameterUnit":"m.s-1","parameterCategory":2,"la1":30.2991,"la2":30.254,"lo1":-89.0895,"lo2":-89.0444,"dx":0.0017,"dy":0.0017,"nx":28,"ny":28,"refTime":"2022-12-12T03:00:00:Z","depth":"4","parameterNumber":2,"parameterNumberName":"U-component_of_CURRENTS"},"data":[0,0,0,0,0,0,0,0,0,0,0,0,0,0,0,0,0,0,0,0,0,0,0,0,0,0,0,0,0,0,0,0,0,0,0,0,0,0,0,0,0,0,0,0,0,0,0,0,0,0,0,0,0,0,0,0,0,0,0.1319,0.1319,0,0.139,0.1391,0.1391,0.1449,0.145,0.145,0.1451,0.152,0.1521,0.1522,0,0,0,0,0,0,0,0,0,0,0,0,0,0.121,0.1211,0.1319,0.1319,0.132,0.139,0.1391,0.1392,0.1449,0.145,0.1451,0.1451,0.1519,0.1521,0.1522,0,0,0,0,0,0,0,0,0,0,0,0,0,0.1266,0.1212,0.1318,0.1358,0.1362,0.139,0.1391,0.1392,0.1449,0.145,0.1451,0.1452,0.1519,0.152,0.1522,0.1514,0,0,0.1528,0.1529,0,0,0,0,0,0,0,0,0.1263,0.127,0.1351,0.1355,0.136,0.1412,0.1378,0.1433,0.1449,0.1415,0.1451,0.1452,0.1483,0.1488,0.1498,0.1517,0.152,0.1528,0.1529,0.153,0.153,0,0,0,0,0,0,0,0.1259,0.1267,0.1346,0.1352,0.1358,0.1364,0.1374,0.1388,0.1442,0.1418,0.1423,0.1431,0.1486,0.1496,0.15,0.1521,0.1528,0.153,0.1531,0.1531,0.1651,0.1653,0,0,0,0,0,0,0.1252,0.1263,0.1344,0.1348,0.1314,0.1366,0.1376,0.1394,0.1442,0.1451,0.143,0.1434,0.1493,0.1498,0.1503,0.1588,0.153,0.1532,0.1533,0.1649,0.1651,0.1653,0,0,0,0,0,0,0.1249,0.1258,0.1341,0.1307,0.1318,0.1367,0.1386,0.1395,0.1445,0.1452,0.146,0.1476,0.1494,0.15,0.1547,0.1587,0.1532,0.1534,0.1646,0.1649,0.1652,0.1698,0,0,0,0,0,0,0.1246,0.1257,0.1288,0.1307,0.132,0.1384,0.1386,0.1396,0.1446,0.1453,0.1493,0.1498,0.1495,0.1545,0.1549,0.1589,0.1536,0.1644,0.1648,0.1651,0.1694,0.1703,0.171,0,0,0,0,0,0.1242,0.1274,0.1289,0.13,0.1355,0.1386,0.1394,0.1429,0.1448,0.1477,0.1503,0.1499,0.1573,0.1547,0.1552,0.1593,0.1642,0.1646,0.1651,0.1691,0.1701,0.171,0,0,0,0,0,0,0.1244,0.1283,0.1301,0.1345,0.1376,0.1396,0.143,0.1452,0.1495,0.1513,0.1517,0.1524,0.1588,0.1584,0.1555,0.1642,0.161,0.1616,0.1639,0.1649,0.1656,0.1694,0.1537,0,0,0,0,0,0.1257,0.1295,0.1324,0.1364,0.1382,0.1413,0.1439,0.1465,0.1494,0.1517,0.1544,0.1575,0.1604,0.1621,0.165,0.1685,0.1699,0.1719,0.1727,0.1734,0.177,0.1808,0.1822,0.1669,0.1669,0.1669,0,0,0.1266,0.1296,0.1318,0.1368,0.1395,0.1429,0.1433,0.1483,0.1521,0.1516,0.1587,0.161,0.1624,0.1672,0.17,0.1676,0.1784,0.174,0.1745,0.1778,0.1814,0.1829,0.1843,0.1672,0.1671,0.1671,0,0,0.1289,0.1333,0.1367,0.1398,0.145,0.1469,0.1493,0.1538,0.1572,0.1629,0.1642,0.1692,0.1733,0.1752,0.1762,0.1832,0.1832,0.1844,0.1904,0.194,0.1953,0.1964,0.1992,0.2006,0.1837,0.1837,0.1838,0,0.1307,0.1346,0.1382,0.142,0.1449,0.1491,0.1528,0.1566,0.1626,0.166,0.1666,0.1764,0.1773,0.1831,0.1862,0.1851,0.1872,0.1859,0.1949,0.1961,0.1972,0.1998,0.2013,0.184,0.184,0.184,0.1839,0,0.1336,0.1384,0.1407,0.1468,0.1508,0.1548,0.1596,0.1655,0.1702,0.1738,0.1831,0.1853,0.1911,0.192,0.1914,0.2002,0.1992,0.1958,0.1921,0.199,0.2013,0.2028,0.1844,0.1843,0.1842,0.1842,0,0,0.1329,0.1411,0.1424,0.1457,0.1537,0.1567,0.1645,0.1715,0.1775,0.1848,0.1922,0.1988,0.2022,0.204,0.2043,0.2082,0.2167,0.2067,0.2067,0.2088,0.2256,0.2132,0.2135,0.2149,0.2152,0.2154,0.2236,0,0.1342,0.1405,0.1452,0.1522,0.1553,0.1625,0.1687,0.1767,0.1837,0.1921,0.1978,0.2056,0.2055,0.2097,0.2139,0.2163,0.221,0.2149,0.2194,0.2196,0.2071,0.215,0.2164,0.2247,0.225,0.2252,0.2254,0,0.1346,0.139,0.1451,0.1543,0.1567,0.1623,0.1739,0.1804,0.1926,0.1989,0.2088,0.2136,0.2231,0.221,0.2308,0.2272,0.2292,0.2304,0.2305,0.2192,0.2099,0.2167,0.228,0.2278,0.2276,0.2274,0.2273,0,0.1294,0.139,0.1436,0.1467,0.1576,0.1634,0.1707,0.183,0.1898,0.2051,0.2123,0.2228,0.2295,0.2347,0.2392,0.2362,0.2487,0.2424,0.2337,0.2328,0.2391,0.2378,0.2514,0.2514,0.2514,0.2514,0.2513,0,0.1267,0.1311,0.1421,0.1444,0.152,0.1615,0.171,0.181,0.1946,0.2036,0.2159,0.2244,0.2342,0.2415,0.2434,0.2437,0.2518,0.2385,0.2353,0.2407,0.2395,0.24,0.2386,0.2517,0.2516,0.2515,0.2515,0,0.1198,0.1266,0.1327,0.1448,0.1493,0.1553,0.1705,0.1769,0.1924,0.2048,0.211,0.228,0.2386,0.2459,0.2545,0.2475,0.2494,0.2478,0.2559,0.2524,0.2299,0.2287,0.2375,0.2371,0.2369,0.2366,0.2364,0,0.1154,0.1179,0.1313,0.1349,0.1409,0.151,0.1575,0.1743,0.1815,0.2055,0.21,0.2277,0.2373,0.2388,0.2478,0.2508,0.2483,0.2464,0.2371,0.2331,0.2292,0.2283,0.2275,0.2359,0.2359,0.2358,0.2357,0,0.1069,0.1136,0.1188,0.1267,0.134,0.1418,0.1529,0.1572,0.1772,0.1926,0.2051,0.2135,0.2252,0.2316,0.2368,0.2382,0.2451,0.2432,0.2437,0.235,0.2313,0.2275,0.227,0.2347,0.2349,0.235,0.235,0,0.1,0.1021,0.1098,0.1166,0.1246,0.13,0.138,0.1476,0.1574,0.1837,0.1878,0.2076,0.2232,0.2256,0.2305,0.2312,0.2268,0.2169,0.2186,0.2199,0.2105,0.203,0.1979,0,0,0,0,0,0.0922,0.094,0.0987,0.1047,0.1127,0.1187,0.1332,0.1418,0.161,0.1649,0.176,0.1872,0.1983,0.2082,0.2054,0.2227,0.2268,0.2185,0.2159,0.2291,0.2303,0.221,0,0,0,0,0,0,0.0862,0.0901,0.0942,0.0939,0.0961,0.1039,0.1134,0.1275,0.1303,0.1511,0.1576,0.1739,0.1864,0.1967,0.2007,0.2038,0.198,0.2306,0.2301,0.2285,0.2295,0.2305,0.2213,0,0,0,0,0]},{"header":{"parameterUnit":"m.s-1","parameterCategory":2,"la1":30.2991,"la2":30.254,"lo1":-89.0895,"lo2":-89.0444,"dx":0.0017,"dy":0.0017,"nx":28,"ny":28,"refTime":"2022-12-12T03:00:00:Z","depth":"4","parameterNumber":3,"parameterNumberName":"V-component_of_CURRENTS"},"data":[0,0,0,0,0,0,0,0,0,0,0,0,0,0,0,0,0,0,0,0,0,0,0,0,0,0,0,0,0,0,0,0,0,0,0,0,0,0,0,0,0,0,0,0,0,0,0,0,0,0,0,0,0,0,0,0,0,0,0.0281,0.028,0,0.021,0.0209,0.0208,0.016,0.016,0.016,0.0159,0.0066,0.0063,0.0061,0,0,0,0,0,0,0,0,0,0,0,0,0,0.0329,0.0329,0.0281,0.028,0.0279,0.021,0.0209,0.0208,0.016,0.016,0.016,0.0159,0.0066,0.0064,0.0061,0,0,0,0,0,0,0,0,0,0,0,0,0,0.0287,0.0328,0.0281,0.0249,0.0245,0.021,0.0209,0.0207,0.016,0.016,0.016,0.0159,0.0067,0.0064,0.006,0.0044,0,0,0.005,0.0048,0,0,0,0,0,0,0,0,0.0289,0.0285,0.0254,0.0251,0.0247,0.0195,0.0191,0.0152,0.016,0.019,0.0159,0.0159,0.0108,0.0101,0.0086,0.004,0.0036,0.0049,0.0047,0.0046,0.0045,0,0,0,0,0,0,0,0.0292,0.0287,0.0251,0.0253,0.0249,0.0222,0.0216,0.0183,0.015,0.0188,0.0185,0.018,0.0106,0.009,0.0084,0.0034,0.005,0.0046,0.0044,0.0043,-0.0044,-0.0044,0,0,0,0,0,0,0.0307,0.029,0.0253,0.0249,0.027,0.0222,0.0215,0.0211,0.0151,0.0142,0.018,0.0178,0.0096,0.0088,0.008,0.006,0.0046,0.0043,0.0041,-0.0044,-0.0044,-0.0044,0,0,0,0,0,0,0.0308,0.0305,0.0256,0.0269,0.0261,0.0222,0.0217,0.0209,0.0194,0.0145,0.0136,0.0174,0.0095,0.0085,0.0054,0.0056,0.0041,0.0038,-0.0044,-0.0044,-0.0044,0.0018,0,0,0,0,0,0,0.031,0.0306,0.0304,0.027,0.0261,0.0242,0.0217,0.0208,0.0193,0.0189,0.0136,0.0127,0.0094,0.006,0.0051,0.0051,0.0035,-0.0043,-0.0044,-0.0044,0.0016,0.002,0.0023,0,0,0,0,0,0.0312,0.0316,0.0305,0.03,0.0262,0.0242,0.0235,0.0204,0.0193,0.0189,0.0154,0.0129,0.0051,0.0057,0.0047,0.0046,-0.0043,-0.0044,-0.0044,0.0015,0.0019,0.0023,0,0,0,0,0,0,0.0337,0.031,0.0298,0.0293,0.0272,0.0235,0.023,0.021,0.0178,0.0175,0.0128,0.0117,0.0089,0.0058,0.0066,0.0018,-0.0001,-0.0004,0.0047,0.0051,0.0054,0.0062,0.0032,0,0,0,0,0,0.0343,0.0338,0.0309,0.0307,0.03,0.0266,0.0253,0.0235,0.0205,0.019,0.0154,0.0114,0.0078,0.0059,0.0023,-0.0001,-0.004,-0.001,-0.0007,-0.0004,-0.0005,-0.0065,-0.0067,-0.0046,-0.0046,-0.0046,0,0,0.0354,0.0338,0.0335,0.0312,0.0294,0.0284,0.0258,0.0246,0.0236,0.0185,0.0162,0.0126,0.0074,0.0047,0.0032,0.0022,-0.0028,-0.0004,-0.0001,-0.0004,-0.0066,-0.0068,-0.007,-0.0046,-0.0046,-0.0046,0,0,0.037,0.0359,0.0358,0.0344,0.0322,0.0302,0.0303,0.027,0.0254,0.023,0.0189,0.0154,0.0104,0.0065,0.0039,0.0038,-0.0007,0.0029,0.0052,-0.0006,-0.0008,-0.001,-0.0051,-0.0058,0.003,0.003,0.003,0,0.0376,0.0378,0.0355,0.035,0.0345,0.0315,0.0316,0.0294,0.0254,0.0246,0.0231,0.0151,0.011,0.0068,0.0067,0.0046,0.0012,0.0045,-0.0001,-0.0004,-0.0008,-0.0049,-0.0057,0.0033,0.0033,0.0032,0.0032,0,0.0389,0.0392,0.0395,0.0377,0.0368,0.0369,0.034,0.0331,0.0313,0.0287,0.0251,0.019,0.0145,0.0124,0.0095,0.0051,0.0036,0.0014,-0.0006,-0.0006,-0.0049,-0.0059,0.0037,0.0036,0.0035,0.0034,0,0,0.0392,0.0401,0.0402,0.0416,0.0388,0.0391,0.0376,0.0361,0.0367,0.0315,0.0306,0.0233,0.0204,0.0172,0.0126,0.0071,0.002,0.0038,0.0033,0.0006,-0.0097,-0.0097,-0.0108,-0.0009,-0.0011,-0.0012,-0.0113,0,0.0407,0.0431,0.0418,0.0443,0.0457,0.0433,0.0431,0.0412,0.0391,0.0376,0.0305,0.028,0.0221,0.0209,0.0141,0.0055,-0.0004,0.005,-0.0102,-0.0106,-0.01,-0.0119,-0.0017,-0.012,-0.0122,-0.0124,-0.0125,0,0.0417,0.0439,0.0475,0.0504,0.0507,0.0518,0.053,0.0522,0.0484,0.0465,0.0413,0.036,0.0277,0.0231,0.0065,0.0105,0.0008,-0.0068,-0.0074,-0.0104,-0.0124,-0.0127,-0.0143,-0.0141,-0.014,-0.0139,-0.0138,0,0.0454,0.0477,0.0523,0.0529,0.0548,0.0571,0.058,0.056,0.0572,0.0529,0.0531,0.0415,0.0375,0.0227,0.0069,0.0067,-0.0113,-0.0136,-0.0232,-0.0233,-0.0228,-0.0225,-0.0262,-0.0262,-0.0262,-0.0262,-0.0261,0,0.0477,0.0513,0.0559,0.0588,0.065,0.0637,0.0694,0.068,0.0672,0.0688,0.0591,0.0568,0.0371,0.0248,0.0088,-0.0096,-0.0104,-0.0235,-0.0265,-0.0198,-0.019,-0.0234,-0.023,-0.0265,-0.0265,-0.0264,-0.0263,0,0.0508,0.0534,0.0597,0.0651,0.0675,0.0724,0.0783,0.0815,0.08,0.0814,0.0805,0.0685,0.0513,0.0309,0.0073,-0.0052,-0.0238,-0.0304,-0.0203,-0.0224,-0.0324,-0.0315,-0.0422,-0.0423,-0.0424,-0.0425,-0.0425,0,0.0531,0.0568,0.0658,0.0705,0.074,0.0815,0.0863,0.0879,0.0906,0.088,0.0882,0.0742,0.0631,0.0308,0.0082,-0.0224,-0.0272,-0.0352,-0.0362,-0.0325,-0.0344,-0.0334,-0.0324,-0.0427,-0.0427,-0.0427,-0.0427,0,0.0569,0.0606,0.0658,0.0762,0.0837,0.0914,0.0983,0.1016,0.1022,0.1016,0.0942,0.0774,0.0579,0.031,0.0076,-0.0146,-0.0292,-0.0362,-0.0362,-0.0372,-0.0332,-0.0347,-0.0337,-0.043,-0.043,-0.043,-0.0429,0,0.06,0.064,0.0715,0.0803,0.0895,0.0974,0.1017,0.1043,0.1069,0.1032,0.1007,0.0795,0.0673,0.035,0.0132,-0.0085,-0.015,-0.0208,-0.0217,-0.0217,-0.0134,-0.0051,-0.0094,0,0,0,0,0,0.0615,0.0654,0.0743,0.0834,0.0926,0.0983,0.1068,0.1097,0.1117,0.1072,0.104,0.0852,0.0529,0.0391,0.0169,0.0098,-0.0194,-0.0168,-0.0267,-0.0446,-0.0443,-0.0381,0,0,0,0,0,0,0.0619,0.0693,0.0738,0.0845,0.0907,0.1009,0.107,0.1088,0.1061,0.1047,0.0873,0.0798,0.0475,0.0642,0.016,0.0095,0.0006,-0.0321,-0.0325,-0.0448,-0.0445,-0.0442,-0.0378,0,0,0,0,0]}]]